Time,TemperatureF,DewpointF,PressureIn,WindDirection,WindDirectionDegrees,WindSpeedMPH,WindSpeedGustMPH,Humidity,HourlyPrecipIn,Conditions,Clouds,dailyrainin,SoftwareType,DateUTC
2013-09-13 00:13:00,55.0,51.0,30.05,NW,318,0.0,2.0,85,0.00,,,0.00,,2013-09-13 05:13:00,
2013-09-13 00:22:00,55.0,51.0,30.06,NW,325,1.0,3.0,85,0.00,,,0.00,,2013-09-13 05:22:00,
2013-09-13 00:43:00,55.0,51.0,30.06,NW,325,1.0,3.0,86,0.00,,,0.00,,2013-09-13 05:43:00,
2013-09-13 00:53:00,55.0,51.0,30.06,NNW,332,0.0,3.0,86,0.00,,,0.00,,2013-09-13 05:53:00,
2013-09-13 01:12:00,54.0,50.0,30.06,NNW,336,1.0,3.0,87,0.00,,,0.00,,2013-09-13 06:12:00,
2013-09-13 01:22:00,54.0,51.0,30.07,NW,317,0.0,4.0,89,0.00,,,0.00,,2013-09-13 06:22:00,
2013-09-13 01:52:00,54.0,51.0,30.07,NNW,343,0.0,3.0,91,0.00,,,0.00,,2013-09-13 06:52:00,
2013-09-13 02:11:00,54.0,51.0,30.07,NNE,24,0.0,3.0,91,0.00,,,0.00,,2013-09-13 07:11:00,
2013-09-13 02:22:00,55.0,53.0,30.08,NNE,33,1.0,6.0,92,0.00,,,0.00,,2013-09-13 07:22:00,
2013-09-13 02:42:00,55.0,52.0,30.08,NNW,332,1.0,6.0,91,0.00,,,0.00,,2013-09-13 07:42:00,
2013-09-13 02:52:00,54.0,51.0,30.09,NNW,340,1.0,6.0,88,0.00,,,0.00,,2013-09-13 07:52:00,
2013-09-13 03:11:00,54.0,49.0,30.08,North,360,1.0,7.0,83,0.00,,,0.00,,2013-09-13 08:11:00,
2013-09-13 03:22:00,53.0,48.0,30.09,NNE,17,0.0,5.0,82,0.00,,,0.00,,2013-09-13 08:22:00,
2013-09-13 03:42:00,52.0,47.0,30.09,NE,34,2.0,6.0,82,0.00,,,0.00,,2013-09-13 08:42:00,
2013-09-13 03:52:00,52.0,47.0,30.09,NNE,21,1.0,5.0,83,0.00,,,0.00,,2013-09-13 08:52:00,
2013-09-13 04:12:00,51.0,46.0,30.09,NNE,19,1.0,6.0,83,0.00,,,0.00,,2013-09-13 09:12:00,
2013-09-13 04:21:00,51.0,46.0,30.09,North,360,1.0,5.0,82,0.00,,,0.00,,2013-09-13 09:21:00,
2013-09-13 04:43:00,51.0,46.0,30.10,NNE,21,2.0,5.0,83,0.00,,,0.00,,2013-09-13 09:43:00,
2013-09-13 04:54:00,50.0,45.0,30.11,NE,38,1.0,5.0,84,0.00,,,0.00,,2013-09-13 09:54:00,
2013-09-13 05:13:00,50.0,46.0,30.11,North,11,1.0,4.0,86,0.00,,,0.00,,2013-09-13 10:13:00,
2013-09-13 05:23:00,49.0,45.0,30.11,NNE,27,1.0,3.0,86,0.00,,,0.00,,2013-09-13 10:23:00,
2013-09-13 05:42:00,49.0,45.0,30.12,North,10,1.0,5.0,85,0.00,,,0.00,,2013-09-13 10:42:00,
2013-09-13 05:53:00,49.0,45.0,30.12,NNE,28,1.0,5.0,86,0.00,,,0.00,,2013-09-13 10:53:00,
2013-09-13 06:12:00,48.0,44.0,30.13,North,355,1.0,3.0,86,0.00,,,0.00,,2013-09-13 11:12:00,
2013-09-13 06:22:00,48.0,44.0,30.13,NNE,13,0.0,5.0,87,0.00,,,0.00,,2013-09-13 11:22:00,
2013-09-13 06:42:00,47.0,44.0,30.13,NNE,21,0.0,4.0,88,0.00,,,0.00,,2013-09-13 11:42:00,
2013-09-13 06:52:00,47.0,43.0,30.14,NNE,15,0.0,5.0,87,0.00,,,0.00,,2013-09-13 11:52:00,
2013-09-13 07:12:00,47.0,44.0,30.14,NW,319,0.0,3.0,88,0.00,,,0.00,,2013-09-13 12:12:00,
2013-09-13 07:21:00,47.0,44.0,30.14,NNW,330,1.0,3.0,89,0.00,,,0.00,,2013-09-13 12:21:00,
2013-09-13 07:32:00,47.0,44.0,30.14,NNW,330,1.0,3.0,89,0.00,,,0.00,,2013-09-13 12:32:00,
2013-09-13 07:42:00,47.0,44.0,30.14,NNW,330,1.0,3.0,89,0.00,,,0.00,,2013-09-13 12:42:00,
2013-09-13 07:52:00,47.0,44.0,30.15,NNW,342,1.0,3.0,90,0.00,,,0.00,,2013-09-13 12:52:00,
2013-09-13 08:11:00,47.0,44.0,30.15,North,5,1.0,4.0,90,0.00,,,0.00,,2013-09-13 13:11:00,
2013-09-13 08:21:00,49.0,45.0,30.15,NNE,16,2.0,6.0,87,0.00,,,0.00,,2013-09-13 13:21:00,
2013-09-13 08:52:00,51.0,45.0,30.16,NW,326,4.0,10.0,80,0.00,,,0.00,,2013-09-13 13:52:00,
2013-09-13 09:11:00,52.0,45.0,30.16,North,349,3.0,9.0,78,0.00,,,0.00,,2013-09-13 14:11:00,
2013-09-13 09:22:00,53.0,45.0,30.16,NNE,24,5.0,9.0,75,0.00,,,0.00,,2013-09-13 14:22:00,
2013-09-13 09:42:00,53.0,45.0,30.16,North,350,3.0,11.0,74,0.00,,,0.00,,2013-09-13 14:42:00,
2013-09-13 09:52:00,54.0,45.0,30.17,North,11,3.0,11.0,72,0.00,,,0.00,,2013-09-13 14:52:00,
2013-09-13 10:11:00,55.0,45.0,30.17,North,10,4.0,8.0,69,0.00,,,0.00,,2013-09-13 15:11:00,
2013-09-13 10:22:00,56.0,45.0,30.17,NW,320,4.0,10.0,67,0.00,,,0.00,,2013-09-13 15:22:00,
2013-09-13 10:43:00,56.0,45.0,30.16,ENE,68,4.0,10.0,67,0.00,,,0.00,,2013-09-13 15:43:00,
2013-09-13 10:53:00,57.0,46.0,30.16,NW,318,3.0,11.0,66,0.00,,,0.00,,2013-09-13 15:53:00,
2013-09-13 11:12:00,58.0,46.0,30.17,North,355,4.0,8.0,64,0.00,,,0.00,,2013-09-13 16:12:00,
2013-09-13 11:24:00,59.0,46.0,30.17,NNW,340,3.0,11.0,62,0.00,,,0.00,,2013-09-13 16:24:00,
2013-09-13 11:43:00,59.0,45.0,30.17,North,360,3.0,10.0,60,0.00,,,0.00,,2013-09-13 16:43:00,
2013-09-13 11:54:00,60.0,46.0,30.17,North,355,4.0,11.0,59,0.00,,,0.00,,2013-09-13 16:54:00,
2013-09-13 12:13:00,61.0,46.0,30.16,North,10,4.0,8.0,58,0.00,,,0.00,,2013-09-13 17:13:00,
2013-09-13 12:24:00,61.0,44.0,30.16,NNE,29,3.0,7.0,54,0.00,,,0.00,,2013-09-13 17:24:00,
2013-09-13 12:44:00,62.0,47.0,30.16,North,9,1.0,9.0,57,0.00,,,0.00,,2013-09-13 17:44:00,
2013-09-13 12:53:00,63.0,44.0,30.16,East,81,2.0,6.0,50,0.00,,,0.00,,2013-09-13 17:53:00,
2013-09-13 13:12:00,63.0,42.0,30.15,NNW,342,3.0,6.0,46,0.00,,,0.00,,2013-09-13 18:12:00,
2013-09-13 13:22:00,63.0,44.0,30.15,NW,307,3.0,8.0,49,0.00,,,0.00,,2013-09-13 18:22:00,
2013-09-13 13:42:00,64.0,43.0,30.14,NNE,17,3.0,9.0,47,0.00,,,0.00,,2013-09-13 18:42:00,
2013-09-13 13:52:00,65.0,43.0,30.14,SE,130,2.0,8.0,45,0.00,,,0.00,,2013-09-13 18:52:00,
2013-09-13 14:11:00,65.0,43.0,30.14,NNE,30,3.0,7.0,45,0.00,,,0.00,,2013-09-13 19:11:00,
2013-09-13 14:22:00,65.0,44.0,30.14,NE,43,2.0,7.0,46,0.00,,,0.00,,2013-09-13 19:22:00,
2013-09-13 14:43:00,66.0,43.0,30.13,West,262,2.0,8.0,44,0.00,,,0.00,,2013-09-13 19:43:00,
2013-09-13 14:52:00,66.0,43.0,30.13,NNE,21,3.0,6.0,43,0.00,,,0.00,,2013-09-13 19:52:00,
2013-09-13 15:11:00,67.0,44.0,30.13,NW,323,5.0,8.0,43,0.00,,,0.00,,2013-09-13 20:11:00,
2013-09-13 15:22:00,67.0,45.0,30.12,NNW,345,1.0,7.0,45,0.00,,,0.00,,2013-09-13 20:22:00,
2013-09-13 15:52:00,67.0,42.0,30.12,North,10,4.0,11.0,40,0.00,,,0.00,,2013-09-13 20:52:00,
2013-09-13 16:12:00,68.0,44.0,30.11,NE,36,2.0,7.0,42,0.00,,,0.00,,2013-09-13 21:12:00,
2013-09-13 16:22:00,68.0,42.0,30.11,SE,140,1.0,8.0,39,0.00,,,0.00,,2013-09-13 21:22:00,
2013-09-13 16:54:00,68.0,43.0,30.11,NW,312,2.0,8.0,41,0.00,,,0.00,,2013-09-13 21:54:00,
2013-09-13 17:13:00,68.0,45.0,30.11,North,5,1.0,8.0,43,0.00,,,0.00,,2013-09-13 22:13:00,
2013-09-13 17:24:00,68.0,45.0,30.11,NNW,330,1.0,5.0,43,0.00,,,0.00,,2013-09-13 22:24:00,
2013-09-13 17:43:00,68.0,44.0,30.10,NNE,26,1.0,5.0,42,0.00,,,0.00,,2013-09-13 22:43:00,
2013-09-13 17:53:00,68.0,44.0,30.11,NNE,13,2.0,6.0,42,0.00,,,0.00,,2013-09-13 22:53:00,
2013-09-13 18:12:00,68.0,43.0,30.11,NNE,13,2.0,4.0,41,0.00,,,0.00,,2013-09-13 23:12:00,
2013-09-13 18:22:00,67.0,43.0,30.11,North,355,1.0,7.0,41,0.00,,,0.00,,2013-09-13 23:22:00,
2013-09-13 18:52:00,66.0,45.0,30.11,NNE,15,1.0,3.0,46,0.00,,,0.00,,2013-09-13 23:52:00,
2013-09-13 19:12:00,65.0,45.0,30.11,NNW,345,0.0,3.0,49,0.00,,,0.00,,2013-09-14 00:12:00,
2013-09-13 19:22:00,63.0,46.0,30.10,NNW,346,0.0,1.0,53,0.00,,,0.00,,2013-09-14 00:22:00,
2013-09-13 19:42:00,61.0,45.0,30.10,NNW,346,0.0,2.0,56,0.00,,,0.00,,2013-09-14 00:42:00,
2013-09-13 19:52:00,60.0,47.0,30.10,NNW,346,0.0,0.0,61,0.00,,,0.00,,2013-09-14 00:52:00,
2013-09-13 20:11:00,58.0,46.0,30.11,NNE,28,0.0,2.0,65,0.00,,,0.00,,2013-09-14 01:11:00,
2013-09-13 20:22:00,57.0,45.0,30.11,NNE,23,0.0,2.0,65,0.00,,,0.00,,2013-09-14 01:22:00,
2013-09-13 20:42:00,57.0,47.0,30.11,NNE,23,0.0,1.0,68,0.00,,,0.00,,2013-09-14 01:42:00,
2013-09-13 20:52:00,56.0,46.0,30.12,NNE,23,0.0,2.0,70,0.00,,,0.00,,2013-09-14 01:52:00,
2013-09-13 21:12:00,54.0,46.0,30.12,NNE,24,0.0,1.0,73,0.00,,,0.00,,2013-09-14 02:12:00,
2013-09-13 21:22:00,54.0,45.0,30.13,NNE,24,0.0,1.0,72,0.00,,,0.00,,2013-09-14 02:22:00,
2013-09-13 21:42:00,53.0,45.0,30.13,East,100,0.0,1.0,74,0.00,,,0.00,,2013-09-14 02:42:00,
2013-09-13 21:52:00,53.0,45.0,30.14,East,100,0.0,0.0,75,0.00,,,0.00,,2013-09-14 02:52:00,
2013-09-13 22:12:00,52.0,45.0,30.14,East,100,0.0,1.0,76,0.00,,,0.00,,2013-09-14 03:12:00,
2013-09-13 22:22:00,52.0,45.0,30.14,East,100,0.0,1.0,78,0.00,,,0.00,,2013-09-14 03:22:00,
2013-09-13 22:54:00,51.0,45.0,30.13,East,100,0.0,0.0,80,0.00,,,0.00,,2013-09-14 03:54:00,
2013-09-13 23:14:00,50.0,44.0,30.13,East,100,0.0,4.0,81,0.00,,,0.00,,2013-09-14 04:14:00,
2013-09-13 23:24:00,50.0,45.0,30.13,East,99,0.0,1.0,83,0.00,,,0.00,,2013-09-14 04:24:00,
2013-09-13 23:43:00,50.0,45.0,30.14,East,94,0.0,1.0,83,0.00,,,0.00,,2013-09-14 04:43:00,
2013-09-13 23:54:00,49.0,44.0,30.13,East,93,0.0,1.0,84,0.00,,,0.00,,2013-09-14 04:54:00,